Albert Lea, MN

3:49 AM CST on February 24, 2017 (GMT -0600)
Albert Lea Municipal

Weather History for KAEL - October, 2012

Change the Weather History Date:

Sunday, October 7, 2012

  Actual Average Record
Temperature  
Mean Temperature 37 °F -  
Max Temperature 51 °F 62 °F 84 °F (1997)
Min Temperature 23 °F 40 °F 23 °F (2012)
Degree Days  
Heating Degree Days 28    
Moisture  
Dew Point 21 °F    
Average Humidity 54    
Maximum Humidity 93    
Minimum Humidity 24    
Precipitation  
Precipitation 0.00 in - - ()
Sea Level Pressure  
Sea Level Pressure 30.11 in    
Wind  
Wind Speed 5 mph (SW)    
Max Wind Speed 14 mph    
Max Gust Speed 21 mph    
Visibility 10 miles    
Events      
Averages and records for this station are not official NWS values.
T = Trace of Precipitation, MM = Missing Value Source: NWS Daily Summary

Daily Weather History Graph

Daily Weather History Graph

Search for Another Location

Airport or City:

Trip Planner

Search our weather history database for the weather conditions in past years. The results will help you decide how hot, cold, wet, or windy it might be!

Date:

Astronomy

Oct. 07, 2012 Rise Set
Actual Time 7:18 AM CDT 6:42 PM CDT
Civil Twilight 6:49 AM CDT 7:11 PM CDT
Nautical Twilight 6:16 AM CDT 7:44 PM CDT
Astronomical Twilight 5:43 AM CDT 8:18 PM CDT
Moon 11:47 PM CDT (10/7) 2:04 PM CDT (10/7)
Length of Visible Light 12h 21m
Length of Day
11h 24m
Waning Gibbous, 56% of the Moon is Illuminated
Oct 7
Waning Gibbous
Oct 8
Last Quarter
Oct 15
New
Oct 21
First Quarter
Oct 29
Full

Hourly Weather History & Observations

Time (CDT) Temp. Windchill Dew Point Humidity Pressure Visibility Wind Dir Wind Speed Gust Speed Precip Events Conditions
12:13 AM 33.8 °F 29.6 °F 21.2 °F 60% 30.23 in 10.0 mi West 4.6 mph - N/A   Overcast
12:33 AM 33.8 °F 30.8 °F 21.2 °F 60% 30.23 in 10.0 mi West 3.5 mph - N/A   Mostly Cloudy
12:53 AM 33.8 °F 29.6 °F 21.2 °F 60% 30.22 in 10.0 mi WNW 4.6 mph - N/A   Mostly Cloudy
1:13 AM 32.0 °F 27.5 °F 21.2 °F 64% 30.22 in 10.0 mi West 4.6 mph - N/A   Mostly Cloudy
1:32 AM 32.0 °F 27.5 °F 21.2 °F 64% 30.22 in 10.0 mi West 4.6 mph - N/A   Scattered Clouds
1:53 AM 30.2 °F 26.7 °F 21.2 °F 69% 30.22 in 10.0 mi West 3.5 mph - N/A   Clear
2:13 AM 30.2 °F 26.7 °F 21.2 °F 69% 30.22 in 10.0 mi West 3.5 mph - N/A   Clear
2:33 AM 28.4 °F - 21.2 °F 74% 30.22 in 10.0 mi Calm Calm - N/A   Clear
2:52 AM 28.4 °F 24.6 °F 21.2 °F 74% 30.21 in 10.0 mi West 3.5 mph - N/A   Clear
3:13 AM 26.6 °F 22.6 °F 21.2 °F 80% 30.21 in 10.0 mi West 3.5 mph - N/A   Clear
3:33 AM 26.6 °F - 21.2 °F 80% 30.21 in 10.0 mi Calm Calm - N/A   Clear
3:52 AM 26.6 °F 22.6 °F 21.2 °F 80% 30.21 in 10.0 mi West 3.5 mph - N/A   Clear
4:13 AM 26.6 °F 22.6 °F 21.2 °F 80% 30.21 in 10.0 mi West 3.5 mph - N/A   Clear
4:32 AM 26.6 °F 22.6 °F 21.2 °F 80% 30.20 in 10.0 mi West 3.5 mph - N/A   Clear
4:53 AM 24.8 °F - 21.2 °F 86% 30.20 in 10.0 mi Calm Calm - N/A   Clear
5:13 AM 24.8 °F - 21.2 °F 86% 30.20 in 10.0 mi Calm Calm - N/A   Clear
5:32 AM 24.8 °F - 21.2 °F 86% 30.19 in 10.0 mi Calm Calm - N/A   Clear
5:53 AM 24.8 °F - 21.2 °F 86% 30.19 in 10.0 mi Calm Calm - N/A   Clear
6:13 AM 24.8 °F - 21.2 °F 86% 30.19 in 10.0 mi Calm Calm - N/A   Clear
6:32 AM 24.8 °F - 21.2 °F 86% 30.19 in 10.0 mi Calm Calm - N/A   Clear
6:53 AM 23.0 °F - 21.2 °F 93% 30.19 in 10.0 mi Calm Calm - N/A   Clear
7:13 AM 24.8 °F 20.5 °F 21.2 °F 86% 30.19 in 10.0 mi SW 3.5 mph - N/A   Clear
7:32 AM 24.8 °F - 21.2 °F 86% 30.19 in 10.0 mi Calm Calm - N/A   Clear
7:53 AM 24.8 °F - 21.2 °F 86% 30.19 in 10.0 mi Calm Calm - N/A   Clear
8:12 AM 26.6 °F - 23.0 °F 86% 30.19 in 10.0 mi Calm Calm - N/A   Clear
8:33 AM 28.4 °F - 23.0 °F 80% 30.19 in 10.0 mi Calm Calm - N/A   Clear
8:53 AM 28.4 °F 24.6 °F 23.0 °F 80% 30.19 in 10.0 mi SSW 3.5 mph - N/A   Clear
9:12 AM 30.2 °F 25.4 °F 23.0 °F 75% 30.18 in 10.0 mi SW 4.6 mph - N/A   Clear
9:33 AM 33.8 °F 28.6 °F 23.0 °F 65% 30.18 in 10.0 mi SSW 5.8 mph - N/A   Clear
9:53 AM 37.4 °F 32.1 °F 24.8 °F 60% 30.18 in 10.0 mi SW 6.9 mph - N/A   Clear
10:12 AM 37.4 °F 31.4 °F 21.2 °F 52% 30.18 in 10.0 mi SW 8.1 mph 16.1 mph N/A   Clear
10:33 AM 39.2 °F 32.5 °F 23.0 °F 52% 30.17 in 10.0 mi SW 10.4 mph 17.3 mph N/A   Clear
10:53 AM 39.2 °F 32.5 °F 21.2 °F 49% 30.17 in 10.0 mi SW 10.4 mph 18.4 mph N/A   Clear
11:12 AM 41.0 °F 34.7 °F 21.2 °F 45% 30.17 in 10.0 mi WSW 10.4 mph - N/A   Clear
11:33 AM 42.8 °F 37.0 °F 21.2 °F 42% 30.16 in 10.0 mi WSW 10.4 mph 17.3 mph N/A   Clear
11:53 AM 42.8 °F 36.6 °F 21.2 °F 42% 30.15 in 10.0 mi SW 11.5 mph 18.4 mph N/A   Clear
12:12 PM 44.6 °F 39.7 °F 21.2 °F 39% 30.15 in 10.0 mi WSW 9.2 mph 16.1 mph N/A   Clear
12:33 PM 44.6 °F 38.1 °F 17.6 °F 34% 30.14 in 10.0 mi WSW 13.8 mph 18.4 mph N/A   Clear
12:53 PM 46.4 °F 41.5 °F 17.6 °F 32% 30.13 in 10.0 mi SW 10.4 mph 17.3 mph N/A   Clear
1:12 PM 46.4 °F 41.9 °F 17.6 °F 32% 30.12 in 10.0 mi SW 9.2 mph - N/A   Clear
1:33 PM 46.4 °F 41.9 °F 17.6 °F 32% 30.10 in 10.0 mi SW 9.2 mph 17.3 mph N/A   Clear
1:53 PM 46.4 °F 41.1 °F 17.6 °F 32% 30.09 in 10.0 mi WSW 11.5 mph 18.4 mph N/A   Clear
2:13 PM 48.2 °F - 19.4 °F 32% 30.08 in 10.0 mi SW 11.5 mph 16.1 mph N/A   Clear
2:33 PM 48.2 °F - 19.4 °F 32% 30.06 in 10.0 mi WSW 10.4 mph 16.1 mph N/A   Clear
2:52 PM 50.0 °F - 17.6 °F 28% 30.05 in 10.0 mi WSW 9.2 mph 18.4 mph N/A   Clear
3:13 PM 50.0 °F - 17.6 °F 28% 30.04 in 10.0 mi WSW 11.5 mph 19.6 mph N/A   Clear
3:33 PM 51.8 °F - 17.6 °F 26% 30.03 in 10.0 mi SW 9.2 mph - N/A   Clear
3:52 PM 51.8 °F - 17.6 °F 26% 30.03 in 10.0 mi WSW 9.2 mph - N/A   Clear
4:13 PM 51.8 °F - 17.6 °F 26% 30.02 in 10.0 mi SW 13.8 mph 17.3 mph N/A   Clear
4:33 PM 51.8 °F - 15.8 °F 24% 30.01 in 10.0 mi WSW 13.8 mph 18.4 mph N/A   Clear
4:52 PM 51.8 °F - 17.6 °F 26% 30.00 in 10.0 mi SW 11.5 mph 20.7 mph N/A   Clear
5:13 PM 51.8 °F - 19.4 °F 28% 30.00 in 10.0 mi SW 10.4 mph - N/A   Clear
5:33 PM 51.8 °F - 19.4 °F 28% 29.99 in 10.0 mi SW 10.4 mph 16.1 mph N/A   Clear
5:52 PM 50.0 °F - 19.4 °F 30% 29.99 in 10.0 mi SW 10.4 mph 16.1 mph N/A   Clear
6:13 PM 48.2 °F - 19.4 °F 32% 29.98 in 10.0 mi SW 4.6 mph - N/A   Clear
6:33 PM 48.2 °F - 19.4 °F 32% 29.98 in 10.0 mi SSW 5.8 mph - N/A   Clear
6:52 PM 46.4 °F 44.3 °F 19.4 °F 34% 29.98 in 10.0 mi SSW 4.6 mph - N/A   Clear
7:13 PM 46.4 °F 45.2 °F 21.2 °F 37% 29.98 in 10.0 mi SSW 3.5 mph - N/A   Clear
7:53 PM 44.6 °F 41.4 °F 21.2 °F 39% 29.98 in 10.0 mi South 5.8 mph - N/A   Clear
8:12 PM 44.6 °F 41.4 °F 21.2 °F 39% 29.97 in 10.0 mi South 5.8 mph - N/A   Clear
8:33 PM 44.6 °F 40.7 °F 21.2 °F 39% 29.97 in 10.0 mi South 6.9 mph - N/A   Clear
8:53 PM 42.8 °F 38.6 °F 21.2 °F 42% 29.97 in 10.0 mi South 6.9 mph - N/A   Clear
9:12 PM 42.8 °F 38.6 °F 21.2 °F 42% 29.97 in 10.0 mi South 6.9 mph - N/A   Clear
9:33 PM 42.8 °F 38.6 °F 21.2 °F 42% 29.96 in 10.0 mi South 6.9 mph - N/A   Clear
9:53 PM 42.8 °F 39.3 °F 21.2 °F 42% 29.96 in 10.0 mi South 5.8 mph - N/A   Clear
10:12 PM 42.8 °F 38.6 °F 21.2 °F 42% 29.96 in 10.0 mi South 6.9 mph - N/A   Clear
10:33 PM 42.8 °F 38.0 °F 21.2 °F 42% 29.95 in 10.0 mi South 8.1 mph - N/A   Clear
10:52 PM 42.8 °F 37.5 °F 23.0 °F 46% 29.95 in 10.0 mi South 9.2 mph - N/A   Clear
11:13 PM 42.8 °F 38.0 °F 23.0 °F 46% 29.95 in 10.0 mi South 8.1 mph - N/A   Clear
11:33 PM 42.8 °F 37.5 °F 24.8 °F 49% 29.94 in 10.0 mi SSW 9.2 mph - N/A   Clear
11:52 PM 42.8 °F 37.5 °F 24.8 °F 49% 29.94 in 10.0 mi SSW 9.2 mph - N/A   Clear